Location: Newark
(48.9320°N, 2.2664°E)
Time: 19:17:40
(UTC+00:00)

Vanguard 1 Rocket - Pass Details

Date: 22 February 2020
Orbit: 650 x 4226 km, 34.3° (Epoch: 09 April)

Event Time Altitude Azimuth Distance (km) Brightness Sun altitude
Rises 05:45:24 0° 248° (WSW) 3,239 - -10.9°
Exits shadow 05:47:43 - 233° (SW) 2,506 9.2 -10.6°
Reaches altitude 10° 05:49:46 10° 211° (SSW) 2,074 9.0 -10.2°
Maximum altitude 05:51:02 11° 194° (SSW) 1,978 9.0 -10.0°
Drops below altitude 10° 05:52:17 10° 177° (S) 2,042 9.3 -9.8°
Sets 05:56:27 0° 140° (SE) 3,087 10.9 -9.1°
